Regional Weather Roundup
Issued by NWS

Home | Current Version | Previous Version | Graphics & Text | Print | Product List | Glossary On
Versions: 1 2 3 4 5 6 7 8 9 10 11 12 13 14 15 16 17 18 19 20 21 22 23 24 25 26 27 28 29 30 31 32 33 34 35 36 37 38 39 40 41 42 43 44 45 46 47 48 49 50
000
ASUS43 KLOT 230310
RWRIL

ILLINOIS REGIONAL WEATHER ROUNDUP
NATIONAL WEATHER SERVICE CHICAGO/ROMEOVILLE IL
1000 PM CDT TUE APR 22 2014

NOTE: "FAIR" INDICATES FEW OR NO CLOUDS BELOW 12,000 FEET WITH NO
SIGNIFICANT WEATHER AND/OR OBSTRUCTIONS TO VISIBILITY.

* THESE STATIONS ARE NOT UNDER NWS QUALITY CONTROL. THEY ALSO MAY NOT
  REPORT WEATHER SUCH AS PRECIPITATION OR FOG.

ILZ001-002-007-009-015-016-024-230400-
NORTHWEST ILLINOIS

CITY           SKY/WX    TMP DP  RH WIND       PRES   REMARKS
MOLINE         CLEAR     53  26  35 CALM      30.04R
STERLING*      CLEAR     50  30  46 N5        30.04R
SAVANNA*       CLEAR     51  29  42 N3        30.05R
$$

ILZ003-004-008-010-011-017-018-230400-
NORTH CENTRAL ILLINOIS

CITY           SKY/WX    TMP DP  RH WIND       PRES   REMARKS
ROCKFORD       PTCLDY    44  29  55 E15       30.08R
FREEPORT*      CLEAR     41  26  55 N3        30.07R
ROCHELLE*      CLEAR     42  31  66 E14       30.06R
DE KALB*       CLEAR     39  29  66 E10       30.07R WCI  32
PERU*          CLEAR     46  34  64 E13       30.04R
$$

ILZ005-006-012>014-019>023-230400-
NORTHEAST ILLINOIS

CITY           SKY/WX    TMP DP  RH WIND       PRES   REMARKS
CHICAGO-OHARE  CLEAR     41  26  55 E9        30.07R
CHICAGO-MIDWAY PTCLDY    43  28  55 NE9       30.07R
AURORA         CLEAR     42  27  55 E12       30.07R
LANSING*       CLEAR     40  28  60 NE6       30.08R
JOLIET*        CLEAR     41  28  60 NE9       30.07S
WAUKEGAN       CLEAR     34  27  75 CALM      30.06R
DUPAGE AIRPORT CLEAR     40  27  59 NE8       30.06R
KANKAKEE*      CLEAR     40  32  71 NE14      30.05S
WHEELING       CLEAR     41  28  60 CALM      30.08R
MORRIS*        CLEAR     43  28  56 E9        30.06R
ROMEOVILLE*    CLEAR     41  28  59 E13       30.06S
NORTHERLY ISL    N/A     41  30  65 NE9         N/A
$$

LMZ740>746-230400-
SOUTHERN LAKE MICHIGAN

STATION/POSITION SKY/WX   TEMP    WIND        PRES    VSBY  WAVE
                          AIR SEA DIR/SP/G                  HT/PER
                          (F)     (DEG/KT/KT) (MB)    (MI)  (FT/S)
WAUKEGAN HARBOR            40      40/  5/  7 1019.3S
HARRISON CRIB              40      20/  6/  9   N/A
BURNHAM HARBOR             40      20/  7/ 11   N/A
CALUMET HARBOR             41      10/  9/ 12 1019.2R
MICHIGAN CITY              40     330/ 10/ 11   N/A
$$

ILZ025>027-034>036-040-047-049-050-058-095>099-230400-
WEST-CENTRAL ILLINOIS

CITY           SKY/WX    TMP DP  RH WIND       PRES   REMARKS
QUINCY         CLEAR     52  30  43 N8        30.02S
GALESBURG*     CLEAR     42  29  60 N5        30.03R
MACOMB*        CLEAR     47  31  54 N7        30.05R
JACKSONVILLE*  CLEAR     50  29  45 NW3       30.03R
PITTSFIELD*    CLEAR     52  32  47 NW5       30.03S
$$

ILZ028>032-037-038-041>044-048-051>054-059>061-230400-
CENTRAL ILLINOIS

CITY           SKY/WX    TMP DP  RH WIND       PRES   REMARKS
PONTIAC        CLEAR     45  32  61 NE17G23   30.04R
BLOOMINGTON    CLEAR     49  29  46 N8        30.02R
DECATUR        CLEAR     51  30  44 N8        30.01R
PEORIA         CLEAR     54  27  35 N5        30.02R
LACON*         CLEAR     48  31  50 CALM      30.02R
LINCOLN*       CLEAR     52  29  40 N3        30.01R
SPRINGFIELD    CLEAR     54  28  36 CALM      30.01R
TAYLORVILLE    CLEAR     50  32  50 N6        30.01R
$$

ILZ033-039-045-046-055>057-062-063-230400-
EAST-CENTRAL ILLINOIS

CITY           SKY/WX    TMP DP  RH WIND       PRES   REMARKS
CHAMPAIGN      CLEAR     49  32  52 N9        29.99S
RANTOUL*       CLEAR     51  35  54 NE13      30.03R
MATTOON        CLEAR     49  32  52 CALM      29.99R
PARIS*         CLEAR     51  35  55 CALM      30.00S
$$

ILZ079-100>102-230400-
SOUTHWEST ILLINOIS

CITY           SKY/WX    TMP DP  RH WIND       PRES   REMARKS
ALTON          CLEAR     54  30  40 CALM      30.00S
BELLEVILLE     CLEAR     53  38  56 NW2       30.00R
CAHOKIA*       CLEAR     56  34  43 NW3       30.01R
SPARTA*        CLEAR     55  36  47 CALM      30.01S
$$

ILZ064>066-069>071-074>076-080>082-084>086-088>090-092>094-230400-
SOUTH-CENTRAL ILLINOIS

CITY           SKY/WX    TMP DP  RH WIND       PRES   REMARKS
CARBONDALE     CLEAR     56  38  50 N3        29.99S
CAIRO*         CLEAR     60  40  46 CALM      29.99S
MARION         CLEAR     59  37  44 N5        29.99S
MT. VERNON     CLEAR     46  34  61 CALM      30.00S
CENTRALIA*       N/A     54  37  52 CALM      30.00S
SALEM*         CLEAR     53  38  56 CALM      30.00S
METROPOLIS*    CLEAR     58  36  43 CALM      29.98S
$$

ILZ067-068-072-073-078-083-087-091-230400-
SOUTHEAST ILLINOIS

CITY           SKY/WX    TMP DP  RH WIND       PRES   REMARKS
FAIRFIELD*     CLEAR     57  39  51 CALM      29.99S
HARRISBURG*    CLEAR     55  39  56 CALM      30.00S
ROBINSON*      CLEAR     55  38  52 N5        30.01R
CARMI*         CLEAR     55  42  63 NW5       29.98S
$$

ABBREVIATIONS USED IN REMARKS
   TC - TEMPERATURE IN CELSIUS
  WCI - WIND CHILL INDEX
   HX - HEAT INDEX
  VSB - VISIBILITY
$$




USA.gov is the U.S. government's official web portal to all federal, state and local government web resources and services.